| time (UTC) | temp C | wind direction | speed KPH | gust KPH | rain 1hr cm | rain 24hr cm | rain mn cm | humidity % | barometer mb |
| 20260503032650 | 3 | 314 | 1.6 | 6.4 | 0.00 | 0.00 | 0.00 | 71 | 1011.6 |
| 20260503032150 | 3 | 9 | 3.2 | 6.4 | 0.00 | 0.00 | 0.00 | 70 | 1012.4 |
| 20260503031648 | 3 | 334 | 3.2 | 6.4 | 0.00 | 0.00 | 0.00 | 70 | 1012.3 |
| 20260503031147 | 3 | 326 | 1.6 | 6.4 | 0.00 | 0.00 | 0.00 | 69 | 1012.3 |
| 20260503030648 | 3 | 325 | 3.2 | 6.4 | 0.00 | 0.00 | 0.00 | 70 | 1012.4 |
| 20260503030147 | 3 | 21 | 3.2 | 8.0 | 0.00 | 0.00 | 0.00 | 69 | 1012.3 |
| 20260503025650 | 3 | 317 | 1.6 | 8.0 | 0.00 | 0.00 | 0.00 | 69 | 1012.2 |
| 20260503025147 | 3 | 347 | 3.2 | 6.4 | 0.00 | 0.00 | 0.00 | 69 | 1012.0 |
| 20260503024650 | 3 | 311 | 3.2 | 8.0 | 0.00 | 0.00 | 0.00 | 69 | 1012.0 |
| 20260503024150 | 3 | 309 | 3.2 | 8.0 | 0.00 | 0.00 | 0.00 | 69 | 1011.9 |
| 20260503023648 | 3 | 298 | 1.6 | 8.0 | 0.00 | 0.00 | 0.00 | 68 | 1012.0 |
| 20260503023147 | 4 | 294 | 3.2 | 8.0 | 0.00 | 0.00 | 0.00 | 68 | 1012.1 |
| 20260503022647 | 4 | 306 | 1.6 | 4.8 | 0.00 | 0.00 | 0.00 | 68 | 1012.1 |
| 20260503022147 | 4 | 304 | 1.6 | 4.8 | 0.00 | 0.00 | 0.00 | 68 | 1011.9 |
| 20260503021647 | 4 | 323 | 3.2 | 6.4 | 0.00 | 0.00 | 0.00 | 68 | 1011.8 |
| 20260503021148 | 4 | 308 | 3.2 | 6.4 | 0.00 | 0.00 | 0.00 | 68 | 1011.8 |
| 20260503020701 | 4 | 317 | 3.2 | 6.4 | 0.00 | 0.00 | 0.00 | 67 | 1011.8 |
| 20260503020151 | 4 | 323 | 3.2 | 6.4 | 0.00 | 0.00 | 0.00 | 67 | 1011.8 |
| 20260503015648 | 4 | 309 | 1.6 | 8.0 | 0.00 | 0.00 | 0.00 | 67 | 1011.7 |
| 20260503015147 | 4 | 319 | 3.2 | 8.0 | 0.00 | 0.00 | 0.00 | 66 | 1011.7 |
| 20260503014647 | 4 | 323 | 1.6 | 6.4 | 0.00 | 0.00 | 0.00 | 67 | 1011.6 |
| 20260503014147 | 5 | 29 | 3.2 | 6.4 | 0.00 | 0.00 | 0.00 | 66 | 1011.7 |
| 20260503013647 | 5 | 309 | 1.6 | 6.4 | 0.00 | 0.00 | 0.00 | 66 | 1011.7 |
| 20260503013147 | 5 | 317 | 1.6 | 6.4 | 0.00 | 0.00 | 0.00 | 66 | 1011.6 |
| 20260503012647 | 5 | 314 | 1.6 | 6.4 | 0.00 | 0.00 | 0.00 | 65 | 1011.4 |
| 20260503012149 | 5 | 306 | 3.2 | 8.0 | 0.00 | 0.00 | 0.00 | 65 | 1011.5 |
| 20260503011650 | 5 | 336 | 3.2 | 8.0 | 0.00 | 0.00 | 0.00 | 65 | 1011.3 |
| 20260503011148 | 5 | 332 | 3.2 | 6.4 | 0.00 | 0.00 | 0.00 | 64 | 1011.3 |
| 20260503010647 | 5 | 324 | 3.2 | 4.8 | 0.00 | 0.00 | 0.00 | 64 | 1011.4 |
| 20260503010149 | 5 | 325 | 1.6 | 4.8 | 0.00 | 0.00 | 0.00 | 63 | 1011.4 |
| 20260503005647 | 5 | 340 | 1.6 | 6.4 | 0.00 | 0.00 | 0.00 | 63 | 1011.5 |
| 20260503005147 | 5 | 328 | 1.6 | 6.4 | 0.00 | 0.00 | 0.00 | 63 | 1011.4 |
| 20260503004647 | 5 | 334 | 1.6 | 4.8 | 0.00 | 0.00 | 0.00 | 62 | 1011.5 |
| 20260503004147 | 5 | 270 | 1.6 | 4.8 | 0.00 | 0.00 | 0.00 | 62 | 1011.6 |
| 20260503003647 | 6 | 285 | 1.6 | 4.8 | 0.00 | 0.00 | 0.00 | 61 | 1011.3 |
| 20260503003148 | 6 | 266 | 1.6 | 6.4 | 0.00 | 0.00 | 0.00 | 61 | 1011.2 |
| 20260503002647 | 6 | 0 | 0.0 | 6.4 | 0.00 | 0.00 | 0.00 | 59 | 1011.1 |
| 20260503002147 | 6 | 334 | 3.2 | 8.0 | 0.00 | 0.00 | 0.00 | 59 | 1011.1 |
| 20260503001649 | 6 | 306 | 3.2 | 8.0 | 0.00 | 0.00 | 0.00 | 58 | 1011.1 |
| 20260503001147 | 6 | 301 | 3.2 | 8.0 | 0.00 | 0.00 | 0.00 | 58 | 1011.1 |
| 20260503000647 | 6 | 1 | 3.2 | 9.7 | 0.00 | 0.00 | 0.00 | 58 | 1011.0 |
| 20260503000147 | 6 | 299 | 3.2 | 9.7 | 0.00 | 0.00 | 0.00 | 57 | 1010.8 |
| 20260502235647 | 6 | 304 | 3.2 | 9.7 | 0.00 | 0.00 | 0.00 | 57 | 1010.6 |
| 20260502235147 | 7 | 311 | 3.2 | 9.7 | 0.00 | 0.00 | 0.00 | 57 | 1010.5 |
| 20260502234647 | 7 | 306 | 3.2 | 9.7 | 0.00 | 0.00 | 0.00 | 55 | 1010.3 |
| 20260502234147 | 7 | 306 | 4.8 | 9.7 | 0.00 | 0.00 | 0.00 | 56 | 1010.2 |
| 20260502233647 | 7 | 302 | 3.2 | 8.0 | 0.00 | 0.00 | 0.00 | 57 | 1010.3 |
| 20260502233147 | 7 | 308 | 3.2 | 8.0 | 0.00 | 0.00 | 0.00 | 56 | 1010.2 |
| 20260502232647 | 7 | 312 | 3.2 | 9.7 | 0.00 | 0.00 | 0.00 | 55 | 1010.2 |
| 20260502232147 | 7 | 293 | 3.2 | 9.7 | 0.00 | 0.00 | 0.00 | 54 | 1010.1 |
| 20260502231618 | 7 | 314 | 3.2 | 8.0 | 0.00 | 0.00 | 0.00 | 53 | 1010.1 |
| 20260502231118 | 8 | 316 | 3.2 | 8.0 | 0.00 | 0.00 | 0.00 | 53 | 1010.1 |
| 20260502230621 | 8 | 307 | 1.6 | 11.3 | 0.00 | 0.00 | 0.00 | 51 | 1010.1 |
| 20260502230118 | 8 | 302 | 3.2 | 11.3 | 0.00 | 0.00 | 0.00 | 52 | 1010.1 |
| 20260502225251 | 8 | 307 | 4.8 | 12.9 | 0.00 | 0.00 | 0.00 | 52 | 1010.1 |
| 20260502224748 | 8 | 302 | 4.8 | 12.9 | 0.00 | 0.00 | 0.00 | 51 | 1009.9 |
| 20260502224248 | 8 | 306 | 6.4 | 12.9 | 0.00 | 0.00 | 0.00 | 51 | 1009.9 |
| 20260502223521 | 8 | 315 | 6.4 | 14.5 | 0.00 | 0.00 | 0.00 | 51 | 1009.7 |
| 20260502223011 | 8 | 317 | 8.0 | 14.5 | 0.00 | 0.00 | 0.00 | 51 | 1009.6 |
| 20260502222511 | 8 | 307 | 6.4 | 14.5 | 0.00 | 0.00 | 0.00 | 50 | 1009.5 |
| 20260502222011 | 9 | 317 | 6.4 | 11.3 | 0.00 | 0.00 | 0.00 | 49 | 1009.4 |
| 20260502221511 | 9 | 320 | 6.4 | 12.9 | 0.00 | 0.00 | 0.00 | 49 | 1009.3 |
| 20260502221011 | 10 | 311 | 6.4 | 12.9 | 0.00 | 0.00 | 0.00 | 48 | 1009.5 |
| 20260502220511 | 10 | 300 | 6.4 | 12.9 | 0.00 | 0.00 | 0.00 | 50 | 1009.6 |
| 20260502220011 | 10 | 319 | 4.8 | 12.9 | 0.00 | 0.00 | 0.00 | 49 | 1009.5 |
| 20260502215511 | 10 | 327 | 4.8 | 11.3 | 0.00 | 0.00 | 0.00 | 49 | 1009.5 |
| 20260502215011 | 10 | 321 | 4.8 | 11.3 | 0.00 | 0.00 | 0.00 | 49 | 1009.6 |
| 20260502214511 | 10 | 318 | 4.8 | 12.9 | 0.00 | 0.00 | 0.00 | 48 | 1009.5 |
| 20260502214011 | 10 | 306 | 6.4 | 12.9 | 0.00 | 0.00 | 0.00 | 47 | 1009.6 |
| 20260502213521 | 10 | 325 | 3.2 | 9.7 | 0.00 | 0.00 | 0.00 | 49 | 1009.4 |
| 20260502213011 | 10 | 303 | 4.8 | 9.7 | 0.00 | 0.00 | 0.00 | 47 | 1009.4 |
| 20260502212531 | 11 | 302 | 3.2 | 12.9 | 0.00 | 0.00 | 0.00 | 45 | 1009.4 |
| 20260502212011 | 11 | 298 | 4.8 | 14.5 | 0.00 | 0.00 | 0.00 | 44 | 1009.2 |
| 20260502211511 | 11 | 278 | 4.8 | 14.5 | 0.00 | 0.00 | 0.00 | 45 | 1009.2 |
| 20260502211011 | 11 | 283 | 3.2 | 9.7 | 0.00 | 0.00 | 0.00 | 45 | 1009.1 |
| 20260502210528 | 12 | 293 | 4.8 | 9.7 | 0.00 | 0.00 | 0.00 | 43 | 1009.1 |
| 20260502205741 | 12 | 296 | 4.8 | 9.7 | 0.00 | 0.00 | 0.00 | 42 | 1008.9 |
| 20260502205223 | 12 | 332 | 4.8 | 14.5 | 0.00 | 0.00 | 0.00 | 41 | 1008.9 |
| 20260502204723 | 13 | 308 | 6.4 | 14.5 | 0.00 | 0.00 | 0.00 | 39 | 1008.9 |
| 20260502204148 | 13 | 349 | 3.2 | 12.9 | 0.00 | 0.00 | 0.00 | 39 | 1009.0 |
| 20260502203651 | 13 | 346 | 4.8 | 12.9 | 0.00 | 0.00 | 0.00 | 38 | 1008.9 |
| 20260502203157 | 14 | 317 | 3.2 | 9.7 | 0.00 | 0.00 | 0.00 | 40 | 1008.9 |
| 20260502202148 | 13 | 331 | 4.8 | 11.3 | 0.00 | 0.00 | 0.00 | 40 | 1009.0 |
| 20260502201700 | 13 | 315 | 3.2 | 11.3 | 0.00 | 0.00 | 0.00 | 41 | 1008.9 |
| 20260502201148 | 13 | 313 | 4.8 | 11.3 | 0.00 | 0.00 | 0.00 | 39 | 1008.8 |
| 20260502200648 | 14 | 291 | 3.2 | 11.3 | 0.00 | 0.00 | 0.00 | 38 | 1008.8 |
| 20260502200148 | 14 | 330 | 3.2 | 12.9 | 0.00 | 0.00 | 0.00 | 38 | 1008.8 |
| 20260502195648 | 15 | 300 | 1.6 | 12.9 | 0.00 | 0.00 | 0.00 | 38 | 1008.8 |
| 20260502195150 | 14 | 323 | 3.2 | 8.0 | 0.00 | 0.00 | 0.00 | 39 | 1008.9 |
| 20260502194650 | 14 | 3 | 1.6 | 9.7 | 0.00 | 0.00 | 0.00 | 36 | 1009.1 |
| 20260502194148 | 14 | 338 | 4.8 | 9.7 | 0.00 | 0.00 | 0.00 | 36 | 1009.1 |
| 20260502193648 | 15 | 342 | 3.2 | 8.0 | 0.00 | 0.00 | 0.00 | 38 | 1009.3 |
| 20260502193154 | 15 | 335 | 1.6 | 11.3 | 0.00 | 0.00 | 0.00 | 38 | 1009.4 |
| 20260502192648 | 15 | 335 | 3.2 | 11.3 | 0.00 | 0.00 | 0.00 | 37 | 1009.3 |
| 20260502192148 | 15 | 311 | 3.2 | 9.7 | 0.00 | 0.00 | 0.00 | 37 | 1009.3 |
| 20260502191648 | 15 | 40 | 4.8 | 9.7 | 0.00 | 0.00 | 0.00 | 38 | 1009.2 |
| 20260502191148 | 15 | 305 | 3.2 | 11.3 | 0.00 | 0.00 | 0.00 | 37 | 1009.3 |
| 20260502190648 | 15 | 345 | 3.2 | 11.3 | 0.00 | 0.00 | 0.00 | 35 | 1009.3 |
| 20260502190148 | 15 | 331 | 1.6 | 17.7 | 0.00 | 0.00 | 0.00 | 36 | 1009.3 |
| 20260502185648 | 15 | 316 | 4.8 | 17.7 | 0.00 | 0.00 | 0.00 | 37 | 1009.5 |
| 20260502185149 | 15 | 351 | 3.2 | 8.0 | 0.00 | 0.00 | 0.00 | 39 | 1009.4 |
| 20260502184648 | 15 | 336 | 1.6 | 8.0 | 0.00 | 0.00 | 0.00 | 40 | 1009.4 |
| 20260502184148 | 15 | 356 | 1.6 | 8.0 | 0.00 | 0.00 | 0.00 | 36 | 1009.4 |
| 20260502183648 | 15 | 305 | 3.2 | 9.7 | 0.00 | 0.00 | 0.00 | 38 | 1009.3 |
| 20260502183148 | 15 | 308 | 3.2 | 9.7 | 0.00 | 0.00 | 0.00 | 38 | 1009.5 |
| 20260502182406 | 14 | 317 | 3.2 | 12.9 | 0.00 | 0.00 | 0.00 | 39 | 1009.6 |
| 20260502181905 | 14 | 340 | 3.2 | 11.3 | 0.00 | 0.00 | 0.00 | 41 | 1009.7 |
| 20260502181407 | 13 | 343 | 1.6 | 9.7 | 0.00 | 0.00 | 0.00 | 40 | 1009.7 |
| 20260502180905 | 13 | 38 | 3.2 | 9.7 | 0.00 | 0.00 | 0.00 | 40 | 1009.8 |
| 20260502170136 | 13 | 46 | 1.6 | 8.0 | 0.00 | 0.00 | 0.00 | 41 | 1010.5 |
| 20260502164154 | 13 | 324 | 1.6 | 12.9 | 0.00 | 0.00 | 0.00 | 43 | 1011.0 |
| 20260502163654 | 12 | 46 | 1.6 | 12.9 | 0.00 | 0.00 | 0.00 | 44 | 1010.9 |
| 20260502163154 | 12 | 355 | 1.6 | 12.9 | 0.00 | 0.00 | 0.00 | 48 | 1011.1 |
| 20260502162726 | 11 | 107 | 1.6 | 12.9 | 0.00 | 0.00 | 0.00 | 46 | 1011.1 |
| 20260502162158 | 11 | 114 | 1.6 | 16.1 | 0.00 | 0.00 | 0.00 | 49 | 1011.2 |
| 20260502161704 | 11 | 60 | 3.2 | 16.1 | 0.00 | 0.00 | 0.00 | 49 | 1011.2 |
| 20260502161155 | 10 | 358 | 3.2 | 12.9 | 0.00 | 0.00 | 0.00 | 49 | 1011.1 |
| 20260502160659 | 10 | 13 | 4.8 | 12.9 | 0.00 | 0.00 | 0.00 | 50 | 1011.1 |
| 20260502160154 | 10 | 262 | 1.6 | 8.0 | 0.00 | 0.00 | 0.00 | 52 | 1011.1 |
| 20260502151944 | 7 | 292 | 3.2 | 12.9 | 0.00 | 0.00 | 0.00 | 58 | 1011.1 |
| 20260502151444 | 6 | 294 | 4.8 | 11.3 | 0.00 | 0.00 | 0.00 | 57 | 1010.9 |
| 20260502150527 | 6 | 316 | 4.8 | 12.9 | 0.00 | 0.00 | 0.00 | 59 | 1010.6 |
| 20260502130443 | 5 | 336 | 4.8 | 14.5 | 0.00 | 0.00 | 0.00 | 65 | 1009.8 |
| 20260502123319 | 5 | 332 | 8.0 | 20.9 | 0.00 | 0.00 | 0.00 | 68 | 1009.6 |
| 20260502122821 | 5 | 329 | 9.7 | 20.9 | 0.00 | 0.00 | 0.00 | 66 | 1009.5 |
| 20260502122319 | 5 | 330 | 8.0 | 19.3 | 0.00 | 0.00 | 0.00 | 67 | 1009.4 |
| 20260502121819 | 4 | 329 | 8.0 | 19.3 | 0.00 | 0.00 | 0.00 | 68 | 1009.2 |
| 20260502121319 | 4 | 320 | 8.0 | 16.1 | 0.00 | 0.00 | 0.00 | 68 | 1009.1 |
| 20260502120819 | 4 | 341 | 8.0 | 16.1 | 0.00 | 0.00 | 0.00 | 69 | 1009.3 |
| 20260502115452 | 4 | 324 | 8.0 | 16.1 | 0.00 | 0.00 | 0.00 | 69 | 1009.6 |
| 20260502114952 | 4 | 331 | 8.0 | 14.5 | 0.00 | 0.00 | 0.00 | 70 | 1009.6 |
| 20260502114452 | 4 | 319 | 8.0 | 12.9 | 0.00 | 0.00 | 0.00 | 70 | 1009.7 |
| 20260502113952 | 4 | 320 | 8.0 | 14.5 | 0.00 | 0.00 | 0.00 | 70 | 1009.7 |
| 20260502113523 | 4 | 319 | 8.0 | 14.5 | 0.00 | 0.00 | 0.00 | 71 | 1009.3 |
| 20260502113026 | 4 | 327 | 8.0 | 19.3 | 0.00 | 0.00 | 0.00 | 71 | 1009.3 |
| 20260502112454 | 4 | 331 | 9.7 | 19.3 | 0.00 | 0.00 | 0.00 | 71 | 1009.2 |
| 20260502112000 | 4 | 334 | 8.0 | 12.9 | 0.00 | 0.00 | 0.00 | 72 | 1009.4 |
| 20260502111454 | 4 | 327 | 8.0 | 14.5 | 0.00 | 0.00 | 0.00 | 73 | 1009.0 |
| 20260502110953 | 4 | 330 | 8.0 | 19.3 | 0.00 | 0.00 | 0.00 | 73 | 1009.0 |
| 20260502110452 | 4 | 335 | 8.0 | 19.3 | 0.00 | 0.00 | 0.00 | 73 | 1008.9 |
| 20260502105952 | 5 | 336 | 8.0 | 16.1 | 0.00 | 0.00 | 0.00 | 73 | 1008.8 |
| 20260502105452 | 5 | 332 | 8.0 | 14.5 | 0.00 | 0.00 | 0.00 | 74 | 1008.9 |
| 20260502104952 | 5 | 323 | 8.0 | 17.7 | 0.00 | 0.00 | 0.00 | 75 | 1008.8 |
| 20260502104511 | 5 | 331 | 9.7 | 17.7 | 0.00 | 0.00 | 0.00 | 75 | 1009.0 |
| 20260502104000 | 5 | 322 | 6.4 | 12.9 | 0.00 | 0.00 | 0.00 | 77 | 1008.9 |
| 20260502103452 | 5 | 323 | 6.4 | 14.5 | 0.00 | 0.00 | 0.00 | 78 | 1008.9 |
| 20260502102952 | 5 | 328 | 8.0 | 14.5 | 0.00 | 0.00 | 0.00 | 79 | 1008.9 |
| 20260502102018 | 5 | 326 | 8.0 | 12.9 | 0.00 | 0.00 | 0.00 | 80 | 1008.8 |
| 20260502101518 | 5 | 328 | 8.0 | 12.9 | 0.00 | 0.00 | 0.00 | 80 | 1009.1 |
| 20260502101018 | 5 | 321 | 8.0 | 12.9 | 0.00 | 0.00 | 0.00 | 80 | 1009.0 |
| 20260502100518 | 5 | 322 | 9.7 | 12.9 | 0.00 | 0.00 | 0.00 | 80 | 1009.2 |
| 20260502091459 | 5 | 332 | 9.7 | 14.5 | 0.00 | 0.00 | 0.00 | 82 | 1009.4 |
| 20260502090959 | 5 | 323 | 8.0 | 17.7 | 0.00 | 0.00 | 0.00 | 83 | 1009.5 |
| 20260502090459 | 5 | 329 | 9.7 | 20.9 | 0.00 | 0.00 | 0.00 | 83 | 1009.6 |
| 20260502071003 | 6 | 351 | 8.0 | 16.1 | 0.00 | 0.00 | 0.00 | 80 | 1009.1 |
| 20260502070500 | 6 | 340 | 6.4 | 14.5 | 0.00 | 0.00 | 0.00 | 80 | 1009.1 |
| 20260502070001 | 6 | 321 | 6.4 | 20.9 | 0.00 | 0.00 | 0.00 | 80 | 1009.1 |
| 20260502065500 | 6 | 335 | 6.4 | 20.9 | 0.00 | 0.00 | 0.00 | 81 | 1009.2 |
| 20260502064502 | 6 | 325 | 6.4 | 12.9 | 0.00 | 0.00 | 0.00 | 81 | 1009.5 |
| 20260502063826 | 6 | 336 | 6.4 | 16.1 | 0.00 | 0.00 | 0.00 | 82 | 1009.5 |
| 20260502063325 | 6 | 332 | 6.4 | 16.1 | 0.00 | 0.00 | 0.00 | 82 | 1009.6 |
| 20260502062831 | 6 | 333 | 6.4 | 20.9 | 0.00 | 0.00 | 0.00 | 82 | 1009.6 |
| 20260502062325 | 7 | 327 | 6.4 | 20.9 | 0.00 | 0.00 | 0.00 | 83 | 1009.6 |
| 20260502061825 | 7 | 344 | 6.4 | 14.5 | 0.00 | 0.00 | 0.00 | 83 | 1009.7 |
| 20260502061325 | 7 | 344 | 6.4 | 14.5 | 0.00 | 0.00 | 0.00 | 83 | 1009.8 |
| 20260502060826 | 7 | 324 | 4.8 | 14.5 | 0.00 | 0.00 | 0.00 | 82 | 1009.8 |
| 20260502060325 | 7 | 328 | 4.8 | 14.5 | 0.00 | 0.00 | 0.00 | 83 | 1009.9 |
| 20260502055827 | 7 | 318 | 4.8 | 14.5 | 0.00 | 0.00 | 0.00 | 82 | 1010.0 |
| 20260502055325 | 7 | 325 | 4.8 | 12.9 | 0.00 | 0.00 | 0.00 | 82 | 1010.1 |
| 20260502054826 | 7 | 337 | 4.8 | 11.3 | 0.00 | 0.00 | 0.00 | 83 | 1010.1 |
| 20260502054325 | 7 | 318 | 4.8 | 11.3 | 0.00 | 0.00 | 0.00 | 82 | 1010.0 |
| 20260502053827 | 7 | 327 | 4.8 | 11.3 | 0.00 | 0.00 | 0.00 | 82 | 1010.2 |
| 20260502053325 | 7 | 310 | 4.8 | 11.3 | 0.00 | 0.00 | 0.00 | 82 | 1010.0 |
| 20260502052834 | 7 | 335 | 4.8 | 9.7 | 0.00 | 0.00 | 0.00 | 82 | 1010.1 |
| 20260502051837 | 7 | 328 | 4.8 | 9.7 | 0.00 | 0.00 | 0.00 | 82 | 1010.2 |
| 20260502051337 | 7 | 339 | 4.8 | 11.3 | 0.00 | 0.00 | 0.00 | 81 | 1010.3 |
| 20260502050837 | 7 | 327 | 4.8 | 11.3 | 0.00 | 0.00 | 0.00 | 81 | 1010.2 |
| 20260502050338 | 7 | 337 | 4.8 | 12.9 | 0.00 | 0.00 | 0.00 | 81 | 1010.3 |
| 20260502045837 | 7 | 342 | 4.8 | 12.9 | 0.00 | 0.00 | 0.00 | 81 | 1010.4 |
| 20260502045337 | 7 | 336 | 4.8 | 11.3 | 0.00 | 0.00 | 0.00 | 81 | 1010.5 |
| 20260502044837 | 7 | 329 | 4.8 | 9.7 | 0.00 | 0.00 | 0.00 | 80 | 1010.6 |
| 20260502044338 | 7 | 330 | 4.8 | 11.3 | 0.00 | 0.00 | 0.00 | 80 | 1010.6 |
| 20260502043837 | 7 | 331 | 6.4 | 16.1 | 0.00 | 0.00 | 0.00 | 80 | 1010.6 |
| 20260502043337 | 8 | 354 | 6.4 | 16.1 | 0.00 | 0.00 | 0.00 | 80 | 1010.7 |
| 20260502042837 | 8 | 337 | 4.8 | 8.0 | 0.00 | 0.00 | 0.00 | 80 | 1010.7 |
| 20260502042012 | 8 | 351 | 4.8 | 9.7 | 0.00 | 0.00 | 0.00 | 80 | 1010.7 |
| 20260502041512 | 8 | 36 | 3.2 | 8.0 | 0.00 | 0.00 | 0.00 | 80 | 1010.7 |
| 20260502041012 | 8 | 315 | 3.2 | 9.7 | 0.00 | 0.00 | 0.00 | 79 | 1010.7 |
| 20260502040512 | 8 | 332 | 4.8 | 9.7 | 0.00 | 0.00 | 0.00 | 79 | 1010.7 |
| 20260502035902 | 8 | 348 | 4.8 | 12.9 | 0.00 | 0.00 | 0.00 | 79 | 1010.8 |
| 20260502035402 | 8 | 7 | 3.2 | 11.3 | 0.00 | 0.00 | 0.00 | 80 | 1010.7 |
| 20260502034902 | 8 | 26 | 3.2 | 11.3 | 0.00 | 0.00 | 0.00 | 81 | 1010.8 |
| 20260502034402 | 8 | 45 | 1.6 | 9.7 | 0.00 | 0.00 | 0.00 | 83 | 1010.8 |
| 20260502033626 | 8 | 0 | 0.0 | 11.3 | 0.00 | 0.00 | 0.00 | 83 | 1011.0 |
| 20260502033125 | 8 | 259 | 1.6 | 4.8 | 0.00 | 0.00 | 0.00 | 84 | 1011.0 |